User: anonymous   Login
Location: Brno
(49.2000°N, 16.6330°E)
Time: 08:41:28
(UTC+02:00)
Language:

CARTOSAT-1 - Orbit

View from above orbital plane
View from above orbital plane
View from above satellite
View from above satellite

Ground track
Ground track

The orbit data is extracted from the following two-line orbital elements,

1 28649U 05017A   16236.76022295  .00000192  00000-0  29870-4 0  9995
2 28649  97.8944 309.2733 0001046 342.0530  18.0641 14.83440003611888
Epoch (UTC): 23 August 2016 18:14:43
Eccentricity: 0.0001046
inclination: 97.8944°
perigee height: 618 km
apogee height: 619 km
right ascension of ascending node: 309.2733°
argument of perigee: 342.0530°
revolutions per day: 14.83440003
mean anomaly at epoch: 18.0641°
orbit number at epoch: 61188

The dashed part of the orbit path shows where the satellite is in the earth's shadow,  

DLR